Regional Weather Roundup
Issued by NWS

Home | Current Version | Previous Version | Graphics & Text | Print | Product List | Glossary Off
Versions: 1 2 3 4 5 6 7 8 9 10 11 12 13 14 15 16 17 18 19 20 21 22 23 24 25 26 27 28 29 30 31 32 33 34 35 36 37 38 39 40 41 42 43 44 45 46 47 48 49 50

000
ASUS43 KFSD 210810
RWRSD

WEATHER ROUNDUP FOR SOUTH DAKOTA
NATIONAL WEATHER SERVICE SIOUX FALLS SD
300 AM CDT MON AUG 21 2017

NOTE: "FAIR" INDICATES FEW OR NO CLOUDS BELOW 12,000 FEET WITH NO
SIGNIFICANT WEATHER AND/OR OBSTRUCTIONS TO VISIBILITY.


SDZ001>005-009-010-012>017-210900-
NORTHWEST AND NORTH CENTRAL SOUTH DAKOTA

CITY           SKY/WX    TMP DP  RH WIND       PRES   REMARKS
BUFFALO          N/A     61  49  64 S23G31    29.90F
FAITH            N/A     61  56  83 SE26G35   29.94F
MOBRIDGE       CLOUDY    60  54  80 NE7       30.02R
$$

SDZ012>016-024>037-041>051-057-063-072>074-210900-
SOUTHWEST AND SOUTH CENTRAL SOUTH DAKOTA

CITY           SKY/WX    TMP DP  RH WIND       PRES   REMARKS
RAPID CTY ARPT PTCLDY    61  52  72 SE12      29.98F
PIERRE         CLOUDY    61  54  77 E5        29.99F
CUSTER         CLEAR     55  51  86 W5        30.11F
ELLSWORTH AFB  PTCLDY    62  53  72 SE13      29.97F
PHILIP         MOCLDY    63  54  72 E8        30.00R
PINE RIDGE     PTCLDY    67  66  97 SE10      29.99F
SPEARFISH      FAIR      61  54  77 CALM      30.02R
WINNER         FAIR      64  61  90 E3        29.97F
$$

SDZ004>011-016>023-039-040-210900-
NORTHEAST SOUTH DAKOTA

CITY           SKY/WX    TMP DP  RH WIND       PRES   REMARKS
ABERDEEN       CLEAR     53  53 100 CALM      30.01F
WATERTOWN      CLEAR     59  54  83 NE3       30.01S
BROOKINGS      CLEAR     63  58  83 E8        30.01S
SISSETON         N/A     54  53  97 SW3       30.00F
$$

SDZ017-020-022-023-036>040-048>070-210900-
SOUTHEAST SOUTH DAKOTA

CITY           SKY/WX    TMP DP  RH WIND       PRES   REMARKS
SIOUX FALLS    CLOUDY    67  64  90 E7        29.99F
HURON          CLEAR     57  56  96 CALM      29.98S
CHAMBERLAIN    CLEAR     63  58  83 N5        29.98S
MITCHELL       CLEAR     60  58  92 NE5       29.97S
YANKTON        CLOUDY    69  67  93 NE8       29.95F
$$

ABBREVIATIONS USED IN REMARKS
   TC - TEMPERATURE IN CELSIUS
  WCI - WIND CHILL INDEX
   HX - HEAT INDEX
  VSB - VISIBILITY




USA.gov is the U.S. government's official web portal to all federal, state and local government web resources and services.